{"data":{"norad_id":66979,"intl_designator":"2025-288W","name":"STARLINK-36107","alt_names":[],"object_type":"PAYLOAD","status":"ACTIVE","operator":null,"country":"US","launch_date":"2025-12-08","launch_site_code":"AFETR","launch_vehicle":null,"mission":null,"orbit_class":"UNKNOWN","rcs_meters":null,"size_class":null,"mass_kg":null,"dimensions":null,"purposes":["comms"],"wikipedia_slug":null,"has_3d_model":false,"image_url":null,"decayed_at":null,"tle_current":{"epoch":"2026-05-24T20:53:23.289216Z","epoch_age_seconds":89417,"freshness":"FRESH","line1":"1 66979U 25288W   26144.87040844  .00011138  00000+0  41357-3 0  9990","line2":"2 66979  43.0027 313.6205 0001610 276.4530  83.6138 15.27586500 26938","mean_motion":15.275865,"eccentricity":0.000161,"inclination_deg":43.0027,"raan_deg":313.6205,"arg_perigee_deg":276.453,"mean_anomaly_deg":83.6138,"bstar":0.00041357,"rev_number":2693,"period_min":94.266347601265,"perigee_km":481.92498494243,"apogee_km":484.13428059818,"semimajor_km":6861.1666327703,"source":"CELESTRAK","updated_at":"2026-05-25T13:38:21.426633Z"}}}